Location: B?lite?ti
(46.2833°N, 22.7333°E)
Time: 16:15:28
(UTC+00:00)

Cosmos 2263 Rocket - Pass Details

Date: 24 January 2021
Orbit: 825 x 847 km, 71.0° (Epoch: 01 March)

Event Time Altitude Azimuth Distance (km) Brightness Sun altitude
Rises 16:08:25 0° 236° (SW) 3,398 7.2 -8.2°
Reaches altitude 10° 16:11:08 10° 246° (WSW) 2,465 6.3 -8.6°
Maximum altitude 16:16:09 32° 309° (NW) 1,426 3.8 -9.5°
Drops below altitude 10° 16:21:10 10° 11° (N) 2,466 4.4 -10.3°
Sets 16:23:54 0° 22° (NNE) 3,401 5.0 -10.7°
